This demonstration page uses our WeatherBlox Daily Observations layout. Learn more.

Left ArrowRight Arrow

39.01783, -85.05884

Hourly Observations for August 6, 2021

Temp ( °F °C ) Dew Point ( °F °C ) Humidity (%) Winds ( mph kmh ) Pressure ( in mb ) Visibility ( mi km ) Precip ( " mm )
12:52 am 00:52 Mostly Clear 70 21.1 61 16.1 73 73 SSW 7 11 30.07 1018 10 16 0.00 0.00
1:52 am 01:52 Mostly Clear 69 20.6 61 16.1 76 76 SSW 5 7 30.07 1018 10 16 0.00 0.00
2:52 am 02:52 Clear 68 20 61 16.1 78 78 SSW 5 7 30.06 1018 10 16 0.00 0.00
3:52 am 03:52 Clear 67 19.4 61 16.1 81 81 Calm 30.06 1018 9 14 0.00 0.00
4:52 am 04:52 Clear 66 18.9 61 16.1 84 84 S 3 6 30.07 1018 9 14 0.00 0.00
5:52 am 05:52 Partly Cloudy 66 18.9 61 16.1 84 84 S 3 6 30.08 1019 9 14 0.00 0.00
6:52 am 06:52 Partly Cloudy 65 18.3 61 16.1 87 87 S 3 6 30.09 1019 7 11 0.00 0.00
7:52 am 07:52 Partly Cloudy 66 18.9 62 16.7 87 87 S 6 9 30.10 1019 8 13 0.00 0.00
8:52 am 08:52 Mostly Cloudy 71 21.7 64 17.8 79 79 S 3 6 30.11 1020 9 14 0.00 0.00
9:52 am 09:52 Mostly Cloudy 74 23.3 63 17.2 69 69 SW 3 6 30.12 1020 10 16 0.00 0.00
10:52 am 10:52 Mostly Cloudy 78 25.6 62 16.7 58 58 S 7 11 30.12 1020 10 16 0.00 0.00
11:52 am 11:52 Mostly Cloudy 81 27.2 61 16.1 51 51 SW 7 11 30.12 1020 10 16 0.00 0.00
12:52 pm 12:52 Mostly Cloudy 83 28.3 62 16.7 49 49 WSW 6 9 30.11 1020 10 16 0.00 0.00
1:52 pm 13:52 Mostly Cloudy 83 28.3 61 16.1 48 48 W 7 11 30.09 1019 10 16 0.00 0.00
2:52 pm 14:52 Cloudy 84 28.9 61 16.1 46 46 W 8 13 30.07 1018 10 16 0.00 0.00
3:52 pm 15:52 Mostly Cloudy 85 29.4 60 15.6 43 43 WSW 8 13 30.05 1018 10 16 0.00 0.00
4:52 pm 16:52 Cloudy 84 28.9 60 15.6 44 44 WSW 10 17 30.04 1017 10 16 0.00 0.00
5:52 pm 17:52 Cloudy 83 28.3 60 15.6 46 46 SW 5 7 30.03 1017 10 16 0.00 0.00
6:52 pm 18:52 Cloudy 81 27.2 61 16.1 51 51 SW 5 7 30.03 1017 10 16 0.00 0.00
7:52 pm 19:52 Cloudy 79 26.1 62 16.7 56 56 Calm 30.03 1017 10 16 0.00 0.00
8:52 pm 20:52 Cloudy 78 25.6 61 16.1 56 56 WSW 3 6 30.03 1017 10 16 0.00 0.00
9:52 pm 21:52 Cloudy 73 22.8 63 17.2 71 71 W 5 7 30.05 1018 10 16 0.00 0.00
10:52 pm 22:52 Cloudy 75 23.9 62 16.7 64 64 Calm 30.05 1018 10 16 0.00 0.00
11:52 pm 23:52 Mostly Cloudy 71 21.7 63 17.2 76 76 SSW 5 7 30.06 1018 10 16 0.00 0.00

Powered by AerisWeather